Location: Moscow
(55.7500°N, 37.5830°E)
Time: 11:04:30
(UTC+03:00)

A-11 Canister half - Pass Details

Date: 07 December 2021
Orbit: 1516 x 1684 km, 47.2° (Epoch: 24 January)

Event Time Altitude Azimuth Distance (km) Brightness Sun altitude
Rises 05:07:56 0° 184° (S) 4,729 11.5 -28.7°
Reaches altitude 10° 05:12:21 10° 167° (SSE) 3,780 11.2 -28.1°
Maximum altitude 05:17:56 17° 130° (SE) 3,277 11.2 -27.3°
Drops below altitude 10° 05:23:38 10° 94° (E) 3,869 12.1 -26.5°
Sets 05:28:13 0° 77° (ENE) 4,889 12.8 -25.9°
